Location: Addison Town Hall
(32.9525°N, 96.8158°W)
Time: 22:36:21
(UTC+00:00)

ATLAS 5 CENTAUR R/B - Pass Details

Date: 08 March 2021
Orbit: 516 x 1142 km, 63.3° (Epoch: 10 April)

Event Time Altitude Azimuth Distance (km) Brightness Sun altitude
Exits shadow 12:05:12 11° 288° (WNW) 1,710 3.2 -9.4°
Maximum altitude 12:06:52 14° 314° (NW) 1,595 3.3 -9.1°
Drops below altitude 10° 12:09:05 10° 346° (NNW) 1,889 3.9 -8.6°
Sets 12:12:28 0° 13° (NNE) 2,904 5.2 -7.9°
